[[{"header":{"parameterUnit":"m.s-1","parameterCategory":1,"la1":30.2991,"la2":30.254,"lo1":-89.0895,"lo2":-89.0444,"dy":0.0017,"dx":0.0017,"nx":28,"ny":28,"refTime":"2025-11-10T09:00:00:Z","depth":0,"parameterNumber":2,"parameterNumberName":"U-component_of_WINDS"},"data":[0,0,0,0,0,0,0,0,0,0,0,0,0,0,0,0,0,0,0,0,0,0,0,0,0,0,0,0,0,0,0,0,0,0,0,0,0,0,0,0,0,0,0,0,0,0,0,0,0,0,0,0,0,0,0,0,0,0,2.1282,2.1282,0,2.1295,2.1295,2.1295,2.1289,2.1289,2.1289,2.1289,2.1301,2.1301,2.1302,0,0,0,0,0,0,0,0,0,0,0,0,0,2.1253,2.1254,2.1282,2.1282,2.1282,2.1295,2.1295,2.1295,2.129,2.1289,2.1289,2.1288,2.13,2.1301,2.1302,0,0,0,0,0,0,0,0,0,0,0,0,0,2.1266,2.1254,2.1282,2.1281,2.1281,2.1295,2.1295,2.1295,2.129,2.1289,2.1289,2.1288,2.13,2.1301,2.1302,2.1317,0,0,2.1305,2.1305,0,0,0,0,0,0,0,0,2.1265,2.1267,2.1281,2.1281,2.1281,2.129,2.1289,2.1302,2.129,2.1286,2.1289,2.1288,2.1297,2.1298,2.1302,2.1317,2.1318,2.1305,2.1305,2.1306,2.1306,0,0,0,0,0,0,0,2.1264,2.1266,2.1287,2.1281,2.1281,2.128,2.1281,2.1292,2.1294,2.1287,2.1286,2.1288,2.1297,2.1301,2.1302,2.1318,2.1305,2.1305,2.1306,2.1306,2.1347,2.1348,0,0,0,0,0,0,2.1263,2.1266,2.1287,2.1287,2.1272,2.1281,2.1283,2.1288,2.1294,2.1295,2.1288,2.1288,2.13,2.1301,2.1302,2.1321,2.1306,2.1306,2.1307,2.1347,2.1347,2.1348,0,0,0,0,0,0,2.1263,2.1265,2.1286,2.1276,2.1279,2.1282,2.1288,2.1288,2.1292,2.1295,2.1296,2.1291,2.1299,2.1301,2.1314,2.1321,2.1307,2.1308,2.1346,2.1347,2.1348,2.1357,0,0,0,0,0,0,2.1262,2.1265,2.1271,2.1277,2.128,2.1297,2.1288,2.1289,2.1294,2.1293,2.1298,2.1299,2.1299,2.1312,2.1314,2.1322,2.1308,2.1345,2.1347,2.1348,2.1356,2.1358,2.1359,0,0,0,0,0,2.1261,2.1272,2.1271,2.1273,2.1286,2.1297,2.1299,2.1299,2.1294,2.13,2.1302,2.1299,2.132,2.1313,2.1316,2.1324,2.1345,2.1346,2.1347,2.1355,2.1357,2.1359,0,0,0,0,0,0,2.1266,2.1273,2.1271,2.1285,2.1291,2.1296,2.1303,2.1301,2.1308,2.1307,2.1307,2.1308,2.1321,2.1324,2.1317,2.1339,2.1332,2.1334,2.1337,2.1339,2.1341,2.1339,2.1309,0,0,0,0,0,2.1269,2.1277,2.1283,2.1294,2.1297,2.13,2.1304,2.1304,2.131,2.1312,2.1316,2.1321,2.1329,2.1334,2.1342,2.1357,2.1358,2.1363,2.1365,2.1367,2.1368,2.1376,2.1379,2.1352,2.1352,2.1352,0,0,2.1274,2.1279,2.1284,2.1295,2.1299,2.1308,2.1302,2.1311,2.1317,2.1314,2.1325,2.1329,2.1335,2.1349,2.1355,2.1351,2.1376,2.1368,2.1369,2.137,2.1378,2.138,2.1383,2.1353,2.1353,2.1353,0,0,2.1288,2.1293,2.1303,2.1308,2.1316,2.1318,2.132,2.1327,2.1329,2.1341,2.1339,2.1347,2.136,2.1365,2.1369,2.1388,2.1385,2.1391,2.1399,2.1408,2.141,2.1412,2.1418,2.1421,2.1392,2.1392,2.1392,0,2.1294,2.1307,2.1309,2.1318,2.1324,2.1322,2.1332,2.1337,2.1346,2.135,2.1346,2.1364,2.1368,2.1383,2.1388,2.1392,2.1395,2.1389,2.141,2.1412,2.1413,2.1419,2.1422,2.1393,2.1392,2.1392,2.1392,0,2.1314,2.1323,2.1331,2.134,2.1347,2.1357,2.136,2.1366,2.1366,2.1369,2.1382,2.1387,2.1396,2.14,2.14,2.1416,2.1413,2.141,2.1402,2.1416,2.1422,2.1425,2.1393,2.1393,2.1393,2.1393,0,0,2.1329,2.1341,2.1344,2.1349,2.1358,2.1365,2.1376,2.1385,2.139,2.1398,2.1406,2.1419,2.1416,2.1421,2.1422,2.1429,2.1444,2.1425,2.1425,2.1428,2.1462,2.1464,2.1467,2.1443,2.1443,2.1444,2.1461,0,2.1344,2.1363,2.1365,2.1382,2.1391,2.139,2.14,2.1406,2.141,2.1418,2.1422,2.1431,2.1426,2.1429,2.1437,2.1441,2.1451,2.144,2.1451,2.1451,2.1448,2.147,2.1471,2.1487,2.1464,2.1464,2.1464,0,2.1363,2.1371,2.1389,2.1398,2.1402,2.141,2.142,2.1428,2.1436,2.1438,2.1444,2.1444,2.1456,2.1449,2.1465,2.1457,2.1462,2.1465,2.1466,2.1466,2.1458,2.147,2.1493,2.1495,2.1468,2.1468,2.1467,0,2.1372,2.1388,2.1401,2.1405,2.1416,2.1422,2.1427,2.1434,2.144,2.1449,2.1453,2.1463,2.1468,2.1475,2.1478,2.1473,2.1494,2.1487,2.1495,2.1495,2.1499,2.1498,2.1522,2.1504,2.1504,2.1503,2.1503,0,2.1388,2.1398,2.1405,2.1413,2.1425,2.1429,2.1441,2.1446,2.1453,2.1462,2.1462,2.147,2.1474,2.1483,2.1486,2.1499,2.1501,2.1503,2.1503,2.1502,2.1502,2.1504,2.1503,2.1504,2.1504,2.1504,2.1504,0,2.1399,2.1404,2.1418,2.1428,2.1431,2.144,2.1448,2.1456,2.146,2.1471,2.1474,2.148,2.1491,2.1495,2.1508,2.151,2.1525,2.1524,2.1522,2.1522,2.153,2.1529,2.1555,2.1559,2.1539,2.1539,2.1539,0,2.1408,2.1417,2.1428,2.1434,2.1439,2.1449,2.1456,2.146,2.1467,2.1478,2.1484,2.1495,2.1504,2.1521,2.1527,2.1537,2.1537,2.1546,2.1538,2.1537,2.1536,2.1535,2.1536,2.1546,2.1547,2.1547,2.1547,0,2.1423,2.1426,2.1436,2.1447,2.1455,2.1463,2.1472,2.1477,2.1483,2.149,2.1502,2.1509,2.1523,2.1534,2.1545,2.1549,2.1549,2.155,2.1552,2.155,2.1548,2.1549,2.1525,2.1549,2.1548,2.1548,2.1548,2.1548,2.1434,2.1441,2.1451,2.1462,2.1469,2.1477,2.1485,2.1491,2.1501,2.1513,2.1515,2.1528,2.1537,2.1551,2.1557,2.1567,2.1564,2.1568,2.1568,2.1569,2.1569,2.1548,2.1569,2.1569,2.1569,2.1569,2.1569,0,2.1449,2.1455,2.1466,2.1478,2.1487,2.1487,2.1497,2.1504,2.1515,2.1524,2.1533,2.1547,2.1558,2.1565,2.1576,2.1583,2.1583,2.1585,2.1584,2.1586,2.1571,2.1568,2.1585,2.1585,2.1585,2.1585,2.1585,2.1585,2.1457,2.1471,2.1475,2.1492,2.1499,2.1511,2.1517,2.1525,2.1532,2.1547,2.1557,2.1562,2.157,2.1582,2.1593,2.1594,2.1598,2.1601,2.1602,2.1588,2.1587,2.1585,2.1582,2.1602,2.1602,2.1616,2.1616,2.1616]},{"header":{"parameterUnit":"m.s-1","parameterCategory":1,"la1":30.2991,"la2":30.254,"lo1":-89.0895,"lo2":-89.0444,"dy":0.0017,"dx":0.0017,"nx":28,"ny":28,"refTime":"2025-11-10T09:00:00:Z","depth":0,"parameterNumber":3,"parameterNumberName":"V-component_of_WINDS"},"data":[0,0,0,0,0,0,0,0,0,0,0,0,0,0,0,0,0,0,0,0,0,0,0,0,0,0,0,0,0,0,0,0,0,0,0,0,0,0,0,0,0,0,0,0,0,0,0,0,0,0,0,0,0,0,0,0,0,0,-8.9473,-8.9475,0,-8.9658,-8.966,-8.9662,-8.9546,-8.9541,-8.9535,-8.953,-8.9713,-8.9722,-8.9732,0,0,0,0,0,0,0,0,0,0,0,0,0,-8.9013,-8.9022,-8.9473,-8.9475,-8.9477,-8.9657,-8.966,-8.9662,-8.9547,-8.954,-8.9534,-8.9528,-8.971,-8.9721,-8.9733,0,0,0,0,0,0,0,0,0,0,0,0,0,-8.9207,-8.9025,-8.9472,-8.9442,-8.9441,-8.9657,-8.966,-8.9663,-8.9548,-8.954,-8.9532,-8.9525,-8.9706,-8.972,-8.9735,-8.9989,0,0,-8.978,-8.9787,0,0,0,0,0,0,0,0,-8.9196,-8.9224,-8.9444,-8.9444,-8.9443,-8.9571,-8.9565,-8.9772,-8.9551,-8.9507,-8.953,-8.9521,-8.9672,-8.9689,-8.9741,-8.9998,-9.0006,-8.9782,-8.9791,-8.9797,-8.9801,0,0,0,0,0,0,0,-8.9182,-8.9215,-8.9545,-8.9447,-8.9447,-8.9416,-8.9435,-8.9604,-8.9633,-8.951,-8.9503,-8.9526,-8.967,-8.9727,-8.9745,-9.0009,-8.9781,-8.9794,-8.9804,-8.9809,-9.0483,-9.0492,0,0,0,0,0,0,-8.9172,-8.9205,-8.954,-8.9551,-8.9297,-8.9431,-8.9452,-8.9538,-8.9631,-8.9637,-8.9533,-8.952,-8.9706,-8.9727,-8.9751,-9.0055,-8.9797,-8.9811,-8.9819,-9.0475,-9.0485,-9.0495,0,0,0,0,0,0,-8.9163,-8.9203,-8.9532,-8.9376,-8.9415,-8.9448,-8.9545,-8.9546,-8.9603,-8.9648,-8.9652,-8.9587,-8.97,-8.973,-8.9931,-9.006,-8.9818,-8.9831,-9.0464,-9.0478,-9.049,-9.0667,0,0,0,0,0,0,-8.915,-8.9201,-8.9299,-8.9379,-8.9424,-8.9713,-8.9553,-8.9555,-8.963,-8.9615,-8.9699,-8.9705,-8.9696,-8.991,-8.9946,-9.0076,-8.9843,-9.0453,-9.047,-9.0486,-9.065,-9.0685,-9.0715,0,0,0,0,0,-8.9134,-8.934,-8.9305,-8.9346,-8.9549,-8.972,-8.9746,-8.9733,-8.9641,-8.9739,-8.9768,-8.9702,-9.004,-8.9932,-8.9972,-9.0108,-9.0444,-9.0465,-9.0485,-9.0635,-9.0678,-9.0714,0,0,0,0,0,0,-8.9272,-8.935,-8.9312,-8.955,-8.963,-8.9701,-8.9824,-8.9779,-8.9885,-8.9866,-8.9843,-8.9863,-9.0074,-9.0111,-8.9989,-9.0359,-9.0227,-9.0256,-9.0328,-9.0369,-9.0401,-9.0388,-8.9855,0,0,0,0,0,-8.9331,-8.9466,-8.9525,-8.973,-8.9772,-8.9792,-8.9866,-8.985,-8.993,-8.9963,-9.0006,-9.0085,-9.0208,-9.029,-9.0407,-9.0654,-9.067,-9.0767,-9.08,-9.0826,-9.0852,-9.0986,-9.1029,-9.0562,-9.0561,-9.0561,0,0,-8.9452,-8.9511,-8.9598,-8.9759,-8.9819,-8.9958,-8.9821,-8.9973,-9.0075,-8.9985,-9.0179,-9.0214,-9.03,-9.0526,-9.0628,-9.0563,-9.0985,-9.0852,-9.0873,-9.0884,-9.1011,-9.1055,-9.1095,-9.0575,-9.0573,-9.0571,0,0,-8.9745,-8.9804,-8.9981,-9.0044,-9.0138,-9.0149,-9.0192,-9.0271,-9.0291,-9.0486,-9.0421,-9.0541,-9.0755,-9.0819,-9.088,-9.1198,-9.1142,-9.1236,-9.1406,-9.1537,-9.1574,-9.1606,-9.172,-9.1761,-9.1261,-9.1262,-9.1262,0,-8.9884,-9.0093,-9.0077,-9.0236,-9.0308,-9.0235,-9.0414,-9.0475,-9.06,-9.0651,-9.0577,-9.0845,-9.0897,-9.1138,-9.1216,-9.1267,-9.1314,-9.1227,-9.157,-9.1603,-9.1633,-9.1741,-9.1784,-9.1273,-9.1272,-9.127,-9.1269,0,-9.0259,-9.0405,-9.0536,-9.0663,-9.075,-9.0917,-9.0925,-9.1015,-9.0991,-9.101,-9.1209,-9.127,-9.1398,-9.1453,-9.143,-9.1691,-9.1648,-9.1573,-9.144,-9.1689,-9.179,-9.1831,-9.1289,-9.1285,-9.1281,-9.1279,0,0,-9.0644,-9.0761,-9.0809,-9.0866,-9.0964,-9.1075,-9.1238,-9.1366,-9.1443,-9.1532,-9.1668,-9.1851,-9.1782,-9.1851,-9.1835,-9.1949,-9.2198,-9.186,-9.1861,-9.1921,-9.2489,-9.2546,-9.2595,-9.2161,-9.2169,-9.2175,-9.2482,0,-9.0943,-9.1232,-9.1223,-9.1491,-9.1625,-9.1558,-9.17,-9.1774,-9.1796,-9.1912,-9.1934,-9.2065,-9.1964,-9.2006,-9.2116,-9.2145,-9.2312,-9.2122,-9.2286,-9.2292,-9.2268,-9.2648,-9.2708,-9.2995,-9.2522,-9.2528,-9.2533,0,-9.1331,-9.1437,-9.1719,-9.1798,-9.1853,-9.1982,-9.2098,-9.221,-9.2292,-9.23,-9.2378,-9.2343,-9.2507,-9.237,-9.2595,-9.2466,-9.2532,-9.2556,-9.2567,-9.2582,-9.2429,-9.2674,-9.3086,-9.313,-9.2595,-9.259,-9.2586,0,-9.1585,-9.1797,-9.1993,-9.2044,-9.214,-9.2232,-9.2276,-9.2351,-9.2428,-9.2528,-9.2578,-9.2696,-9.276,-9.2851,-9.2848,-9.2748,-9.3076,-9.2938,-9.3086,-9.3087,-9.3159,-9.3155,-9.3589,-9.3201,-9.32,-9.3199,-9.3198,0,-9.1921,-9.2096,-9.2109,-9.223,-9.2424,-9.2411,-9.2603,-9.2637,-9.2704,-9.2829,-9.2776,-9.2894,-9.2883,-9.3001,-9.2999,-9.3186,-9.3215,-9.3225,-9.3223,-9.3231,-9.323,-9.3274,-9.3255,-9.3211,-9.3208,-9.3206,-9.3204,0,-9.2237,-9.2253,-9.2463,-9.2538,-9.2561,-9.2701,-9.2763,-9.2877,-9.2895,-9.3054,-9.309,-9.3118,-9.3254,-9.3261,-9.3417,-9.3415,-9.3643,-9.3618,-9.3617,-9.3612,-9.376,-9.3747,-9.4239,-9.4303,-9.3873,-9.3877,-9.388,0,-9.2451,-9.2585,-9.2675,-9.2757,-9.2807,-9.2938,-9.3018,-9.3009,-9.3094,-9.3198,-9.3299,-9.3432,-9.3537,-9.3758,-9.3791,-9.391,-9.3888,-9.4052,-9.3905,-9.3909,-9.3891,-9.3884,-9.3897,-9.4081,-9.4086,-9.4089,-9.4093,0,-9.2829,-9.2831,-9.2949,-9.3071,-9.3167,-9.3262,-9.3349,-9.3418,-9.3419,-9.3517,-9.3658,-9.374,-9.3901,-9.4033,-9.4149,-9.4191,-9.4143,-9.4139,-9.4179,-9.4189,-9.4184,-9.4189,-9.3696,-9.4127,-9.4124,-9.4121,-9.4119,-9.4118,-9.3102,-9.3218,-9.33,-9.3433,-9.3499,-9.3582,-9.3694,-9.3726,-9.3844,-9.3977,-9.3963,-9.412,-9.4198,-9.435,-9.4402,-9.4522,-9.4466,-9.4524,-9.4539,-9.4554,-9.4571,-9.4164,-9.4543,-9.4542,-9.4541,-9.454,-9.454,0,-9.3478,-9.3528,-9.365,-9.3776,-9.3881,-9.3828,-9.3922,-9.4013,-9.4152,-9.423,-9.4336,-9.4497,-9.4625,-9.4668,-9.4791,-9.488,-9.4861,-9.4912,-9.4906,-9.4917,-9.4614,-9.4567,-9.4926,-9.4926,-9.4926,-9.4926,-9.4926,-9.4926,-9.3686,-9.388,-9.3892,-9.4117,-9.4165,-9.432,-9.4378,-9.4454,-9.4517,-9.4701,-9.4808,-9.4836,-9.4899,-9.5027,-9.5142,-9.515,-9.5199,-9.526,-9.526,-9.4977,-9.4938,-9.4901,-9.4857,-9.5271,-9.5271,-9.5553,-9.5556,-9.5558]}]]